Year,Month,Day,Hour,Minute,Value (Times are PST for barometer in hPa)
2014,02,16,00,00,994.60
2014,02,16,00,01,994.68
2014,02,16,00,02,994.51
2014,02,16,00,03,994.75
2014,02,16,00,04,994.76
2014,02,16,00,05,994.77
2014,02,16,00,06,994.71
2014,02,16,00,07,994.86
2014,02,16,00,08,994.92
2014,02,16,00,09,994.89
2014,02,16,00,10,994.93
2014,02,16,00,11,994.99
2014,02,16,00,12,995.02
2014,02,16,00,13,995.02
2014,02,16,00,14,995.02
2014,02,16,00,15,994.97
2014,02,16,00,16,994.84
2014,02,16,00,17,994.95
2014,02,16,00,18,994.93
2014,02,16,00,19,995.05
2014,02,16,00,20,995.02
2014,02,16,00,21,995.03
2014,02,16,00,22,995.11
2014,02,16,00,23,995.09
2014,02,16,00,24,995.07
2014,02,16,00,25,995.16
2014,02,16,00,26,995.20
2014,02,16,00,27,995.23
2014,02,16,00,28,995.23
2014,02,16,00,29,995.20
2014,02,16,00,30,995.26
2014,02,16,00,31,995.22
2014,02,16,00,32,995.16
2014,02,16,00,33,995.16
2014,02,16,00,34,995.19
2014,02,16,00,35,995.16
2014,02,16,00,36,995.20
2014,02,16,00,37,995.26
2014,02,16,00,38,995.28
2014,02,16,00,39,995.24
2014,02,16,00,40,995.32
2014,02,16,00,41,995.29
2014,02,16,00,42,995.29
2014,02,16,00,43,995.32
2014,02,16,00,44,995.26
2014,02,16,00,45,995.26
2014,02,16,00,46,995.27
2014,02,16,00,47,995.32
2014,02,16,00,48,995.25
2014,02,16,00,49,995.19
2014,02,16,00,50,995.20
2014,02,16,00,51,995.27
2014,02,16,00,52,995.29
2014,02,16,00,53,995.30
2014,02,16,00,54,995.33
2014,02,16,00,55,995.35
2014,02,16,00,56,995.30
2014,02,16,00,57,995.35
2014,02,16,00,58,995.30
2014,02,16,00,59,995.40
2014,02,16,01,00,995.44
2014,02,16,01,01,995.49
2014,02,16,01,02,995.47
2014,02,16,01,03,995.50
2014,02,16,01,04,995.50
2014,02,16,01,05,995.50
2014,02,16,01,06,995.53
2014,02,16,01,07,995.54
2014,02,16,01,08,995.61
2014,02,16,01,09,995.70
2014,02,16,01,10,995.70
2014,02,16,01,11,995.71
2014,02,16,01,12,995.73
2014,02,16,01,13,995.74
2014,02,16,02,20,995.79
2014,02,16,02,21,995.73
2014,02,16,02,22,995.73
2014,02,16,02,23,995.84
2014,02,16,02,24,995.80
2014,02,16,02,25,995.87
2014,02,16,02,26,995.90
2014,02,16,02,27,995.94
2014,02,16,02,28,995.97
2014,02,16,02,29,996.04
2014,02,16,02,30,996.14
2014,02,16,02,31,996.08
2014,02,16,02,32,996.17
2014,02,16,02,33,996.28
2014,02,16,02,34,996.34
2014,02,16,02,35,996.31
2014,02,16,02,36,996.34
2014,02,16,02,37,996.38
2014,02,16,02,38,996.41
2014,02,16,02,39,996.48
2014,02,16,02,40,996.41
2014,02,16,02,41,996.51
2014,02,16,02,42,996.49
2014,02,16,02,43,996.68
2014,02,16,02,44,996.61
2014,02,16,02,45,996.75
2014,02,16,02,46,996.82
2014,02,16,02,47,996.90
2014,02,16,02,48,997.12
2014,02,16,02,49,997.12
2014,02,16,02,50,997.05
2014,02,16,02,51,997.17
2014,02,16,02,52,997.35
2014,02,16,02,53,997.16
2014,02,16,02,54,996.89
2014,02,16,02,55,996.82
2014,02,16,02,56,996.75
2014,02,16,02,57,996.82
2014,02,16,02,58,996.85
2014,02,16,02,59,996.85
2014,02,16,03,00,996.85
2014,02,16,03,01,996.85
2014,02,16,03,02,996.89
2014,02,16,03,03,996.89
2014,02,16,03,04,996.92
2014,02,16,03,05,996.89
2014,02,16,03,06,996.95
2014,02,16,03,07,996.89
2014,02,16,03,08,996.92
2014,02,16,03,09,996.90
2014,02,16,03,10,997.02
2014,02,16,03,11,997.02
2014,02,16,03,12,996.99
2014,02,16,03,13,997.05
2014,02,16,03,14,996.99
2014,02,16,03,15,997.09
2014,02,16,03,16,997.00
2014,02,16,03,17,997.12
2014,02,16,03,18,997.05
2014,02,16,03,19,997.12
2014,02,16,03,20,997.05
2014,02,16,03,21,997.05
2014,02,16,03,22,997.12
2014,02,16,03,23,997.22
2014,02,16,03,24,997.29
2014,02,16,03,25,997.26
2014,02,16,03,26,997.26
2014,02,16,03,27,997.26
2014,02,16,03,28,997.29
2014,02,16,03,29,997.33
2014,02,16,03,30,997.39
2014,02,16,03,31,997.46
2014,02,16,03,32,997.43
2014,02,16,03,33,997.39
2014,02,16,03,34,997.43
2014,02,16,03,35,997.53
2014,02,16,03,36,997.43
2014,02,16,03,37,997.50
2014,02,16,03,38,997.43
2014,02,16,03,39,997.53
2014,02,16,03,40,997.60
2014,02,16,03,41,997.60
2014,02,16,03,42,997.53
2014,02,16,03,43,997.53
2014,02,16,03,44,997.60
2014,02,16,03,45,997.66
2014,02,16,03,46,997.66
2014,02,16,03,47,997.56
2014,02,16,03,48,997.56
2014,02,16,03,49,997.60
2014,02,16,03,50,997.54
2014,02,16,03,51,997.66
2014,02,16,03,52,997.77
2014,02,16,03,53,997.73
2014,02,16,03,54,997.73
2014,02,16,03,55,997.73
2014,02,16,03,56,997.83
2014,02,16,03,57,997.80
2014,02,16,03,58,997.80
2014,02,16,03,59,997.83
2014,02,16,04,00,997.87
2014,02,16,04,01,997.88
2014,02,16,04,02,998.00
2014,02,16,04,03,997.94
2014,02,16,04,04,997.97
2014,02,16,04,05,998.04
2014,02,16,04,06,998.00
2014,02,16,04,07,998.00
2014,02,16,04,08,998.00
2014,02,16,04,09,998.00
2014,02,16,04,10,997.94
2014,02,16,04,11,998.10
2014,02,16,04,12,998.17
2014,02,16,04,13,998.15
2014,02,16,04,14,998.24
2014,02,16,04,15,998.27
2014,02,16,04,16,998.34
2014,02,16,04,17,998.24
2014,02,16,04,18,998.31
2014,02,16,04,19,998.31
2014,02,16,04,20,998.31
2014,02,16,04,21,998.31
2014,02,16,04,22,998.34
2014,02,16,04,23,998.34
2014,02,16,04,24,998.41
2014,02,16,04,25,998.51
2014,02,16,04,26,998.41
2014,02,16,04,27,998.51
2014,02,16,04,28,998.54
2014,02,16,04,29,998.58
2014,02,16,04,30,998.66
2014,02,16,04,31,998.75
2014,02,16,04,32,998.75
2014,02,16,04,33,998.82
2014,02,16,04,34,998.82
2014,02,16,04,35,998.85
2014,02,16,04,36,998.92
2014,02,16,04,37,998.96
2014,02,16,04,38,999.09
2014,02,16,04,39,999.09
2014,02,16,04,40,999.19
2014,02,16,04,41,999.26
2014,02,16,04,42,999.29
2014,02,16,04,43,999.32
2014,02,16,04,44,999.29
2014,02,16,04,45,999.29
2014,02,16,04,46,999.26
2014,02,16,04,47,999.29
2014,02,16,04,48,999.35
2014,02,16,04,49,999.26
2014,02,16,04,50,999.29
2014,02,16,04,51,999.29
2014,02,16,04,52,999.29
2014,02,16,04,53,999.26
2014,02,16,04,54,999.22
2014,02,16,04,55,999.26
2014,02,16,04,56,999.29
2014,02,16,04,57,999.26
2014,02,16,04,58,999.26
2014,02,16,04,59,999.32
2014,02,16,05,00,999.32
2014,02,16,05,01,999.36
2014,02,16,05,02,999.39
2014,02,16,05,03,999.36
2014,02,16,05,04,999.29
2014,02,16,05,05,999.32
2014,02,16,05,06,999.36
2014,02,16,05,07,999.32
2014,02,16,05,08,999.32
2014,02,16,05,09,999.29
2014,02,16,05,10,999.36
2014,02,16,05,11,999.36
2014,02,16,05,12,999.32
2014,02,16,05,13,999.36
2014,02,16,05,14,999.39
2014,02,16,05,15,999.46
2014,02,16,05,16,999.43
2014,02,16,05,17,999.46
2014,02,16,05,18,999.43
2014,02,16,05,19,999.46
2014,02,16,05,20,999.46
2014,02,16,05,21,999.49
2014,02,16,05,22,999.53
2014,02,16,05,23,999.56
2014,02,16,05,24,999.63
2014,02,16,05,25,999.63
2014,02,16,05,26,999.63
2014,02,16,05,27,999.63
2014,02,16,05,28,999.59
2014,02,16,05,29,999.49
2014,02,16,05,30,999.46
2014,02,16,05,31,999.46
2014,02,16,05,32,999.53
2014,02,16,05,33,999.56
2014,02,16,05,34,999.63
2014,02,16,05,35,999.64
2014,02,16,05,36,999.73
2014,02,16,05,37,999.80
2014,02,16,05,38,999.80
2014,02,16,05,39,999.83
2014,02,16,05,40,999.87
2014,02,16,05,41,999.90
2014,02,16,05,42,999.90
2014,02,16,05,43,999.90
2014,02,16,05,44,999.87
2014,02,16,05,45,999.87
2014,02,16,05,46,999.83
2014,02,16,05,47,999.83
2014,02,16,05,48,999.90
2014,02,16,05,49,999.90
2014,02,16,05,50,999.93
2014,02,16,05,51,1000.00
2014,02,16,05,52,1000.07
2014,02,16,05,53,1000.10
2014,02,16,05,54,1000.14
2014,02,16,05,55,1000.24
2014,02,16,05,56,1000.24
2014,02,16,05,57,1000.17
2014,02,16,05,58,1000.20
2014,02,16,05,59,1000.24
2014,02,16,06,00,1000.24
2014,02,16,06,01,1000.17
2014,02,16,06,02,1000.27
2014,02,16,06,03,1000.31
2014,02,16,06,04,1000.31
2014,02,16,06,05,1000.31
2014,02,16,06,06,1000.31
2014,02,16,06,07,1000.34
2014,02,16,06,08,1000.30
2014,02,16,06,09,1000.20
2014,02,16,06,10,1000.31
2014,02,16,06,11,1000.34
2014,02,16,06,12,1000.31
2014,02,16,06,13,1000.34
2014,02,16,06,14,1000.41
2014,02,16,06,15,1000.48
2014,02,16,06,16,1000.48
2014,02,16,06,17,1000.51
2014,02,16,06,18,1000.48
2014,02,16,06,19,1000.44
2014,02,16,06,20,1000.44
2014,02,16,06,21,1000.48
2014,02,16,06,22,1000.44
2014,02,16,06,23,1000.48
2014,02,16,06,24,1000.54
2014,02,16,06,25,1000.51
2014,02,16,06,26,1000.54
2014,02,16,06,27,1000.58
2014,02,16,06,28,1000.59
2014,02,16,06,29,1000.68
2014,02,16,06,30,1000.75
2014,02,16,06,31,1000.81
2014,02,16,06,32,1000.85
2014,02,16,06,33,1000.85
2014,02,16,06,34,1000.92
2014,02,16,06,35,1000.92
2014,02,16,06,36,1000.95
2014,02,16,06,37,1000.98
2014,02,16,06,38,1001.05
2014,02,16,06,39,1001.09
2014,02,16,06,40,1001.22
2014,02,16,06,41,1001.19
2014,02,16,06,42,1001.19
2014,02,16,06,43,1001.24
2014,02,16,06,44,1001.12
2014,02,16,06,45,1001.15
2014,02,16,06,46,1001.05
2014,02,16,06,47,1000.98
2014,02,16,06,48,1001.02
2014,02,16,06,49,1000.95
2014,02,16,06,50,1000.95
2014,02,16,06,51,1000.92
2014,02,16,06,52,1000.92
2014,02,16,06,53,1000.95
2014,02,16,06,54,1001.02
2014,02,16,06,55,1001.05
2014,02,16,06,56,1001.08
2014,02,16,06,57,1001.05
2014,02,16,06,58,1001.05
2014,02,16,06,59,1001.02
2014,02,16,07,00,1001.05
2014,02,16,07,01,1001.02
2014,02,16,07,02,1001.08
2014,02,16,07,03,1001.08
2014,02,16,07,04,1001.08
2014,02,16,07,05,1001.08
2014,02,16,07,06,1001.12
2014,02,16,07,07,1001.12
2014,02,16,07,08,1001.15
2014,02,16,07,09,1001.22
2014,02,16,07,10,1001.29
2014,02,16,07,11,1001.22
2014,02,16,07,12,1001.25
2014,02,16,07,13,1001.29
2014,02,16,07,14,1001.32
2014,02,16,07,15,1001.39
2014,02,16,07,16,1001.39
2014,02,16,07,17,1001.36
2014,02,16,07,18,1001.49
2014,02,16,07,19,1001.46
2014,02,16,07,20,1001.42
2014,02,16,07,21,1001.46
2014,02,16,07,22,1001.49
2014,02,16,07,23,1001.49
2014,02,16,07,24,1001.49
2014,02,16,07,25,1001.59
2014,02,16,07,26,1001.52
2014,02,16,07,27,1001.56
2014,02,16,07,28,1001.56
2014,02,16,07,29,1001.59
2014,02,16,07,30,1001.63
2014,02,16,07,31,1001.66
2014,02,16,07,32,1001.69
2014,02,16,07,33,1001.76
2014,02,16,07,34,1001.76
2014,02,16,07,35,1001.83
2014,02,16,07,36,1001.83
2014,02,16,07,37,1001.90
2014,02,16,07,38,1001.93
2014,02,16,07,39,1001.97
2014,02,16,07,40,1001.93
2014,02,16,07,41,1001.97
2014,02,16,07,42,1002.00
2014,02,16,07,43,1002.10
2014,02,16,07,44,1002.10
2014,02,16,07,45,1002.10
2014,02,16,07,46,1002.13
2014,02,16,07,47,1002.17
2014,02,16,07,48,1002.13
2014,02,16,07,49,1002.20
2014,02,16,07,50,1002.17
2014,02,16,07,51,1002.24
2014,02,16,07,52,1002.34
2014,02,16,07,53,1002.27
2014,02,16,07,54,1002.34
2014,02,16,07,55,1002.34
2014,02,16,07,56,1002.34
2014,02,16,07,57,1002.30
2014,02,16,07,58,1002.30
2014,02,16,07,59,1002.30
2014,02,16,08,00,1002.30
2014,02,16,08,01,1002.34
2014,02,16,08,02,1002.24
2014,02,16,08,03,1002.24
2014,02,16,08,04,1002.20
2014,02,16,08,05,1002.24
2014,02,16,08,06,1002.34
2014,02,16,08,07,1002.35
2014,02,16,08,08,1002.47
2014,02,16,08,09,1002.52
2014,02,16,08,10,1002.61
2014,02,16,08,11,1002.68
2014,02,16,08,12,1002.71
2014,02,16,08,13,1002.78
2014,02,16,08,14,1002.85
2014,02,16,08,15,1002.88
2014,02,16,08,16,1002.88
2014,02,16,08,17,1002.91
2014,02,16,08,18,1002.91
2014,02,16,08,19,1002.88
2014,02,16,08,20,1002.88
2014,02,16,08,21,1002.85
2014,02,16,08,22,1002.78
2014,02,16,08,23,1002.74
2014,02,16,08,24,1002.68
2014,02,16,08,25,1002.64
2014,02,16,08,26,1002.64
2014,02,16,08,27,1002.64
2014,02,16,08,28,1002.64
2014,02,16,08,29,1002.68
2014,02,16,08,30,1002.74
2014,02,16,08,31,1002.78
2014,02,16,08,32,1002.88
2014,02,16,08,33,1002.95
2014,02,16,08,34,1002.91
2014,02,16,08,35,1003.01
2014,02,16,08,36,1003.01
2014,02,16,08,37,1003.09
2014,02,16,08,38,1003.18
2014,02,16,08,39,1003.15
2014,02,16,08,40,1003.18
2014,02,16,08,41,1003.18
2014,02,16,08,42,1003.12
2014,02,16,08,43,1003.08
2014,02,16,08,44,1003.15
2014,02,16,08,45,1003.08
2014,02,16,08,46,1003.22
2014,02,16,08,47,1003.29
2014,02,16,08,48,1003.32
2014,02,16,08,49,1003.35
2014,02,16,08,50,1003.39
2014,02,16,08,51,1003.42
2014,02,16,08,52,1003.46
2014,02,16,08,53,1003.49
2014,02,16,08,54,1003.52
2014,02,16,08,55,1003.52
2014,02,16,08,56,1003.56
2014,02,16,08,57,1003.52
2014,02,16,08,58,1003.56
2014,02,16,08,59,1003.59
2014,02,16,09,00,1003.59
2014,02,16,09,01,1003.59
2014,02,16,09,02,1003.59
2014,02,16,09,03,1003.66
2014,02,16,09,04,1003.69
2014,02,16,09,05,1003.69
2014,02,16,09,06,1003.69
2014,02,16,09,07,1003.76
2014,02,16,09,08,1003.86
2014,02,16,09,09,1003.83
2014,02,16,09,10,1003.79
2014,02,16,09,11,1003.83
2014,02,16,09,12,1003.73
2014,02,16,09,13,1003.73
2014,02,16,09,14,1003.69
2014,02,16,09,15,1003.73
2014,02,16,09,16,1003.69
2014,02,16,09,17,1003.73
2014,02,16,09,18,1003.76
2014,02,16,09,19,1003.79
2014,02,16,09,20,1003.83
2014,02,16,09,21,1003.79
2014,02,16,09,22,1003.79
2014,02,16,09,23,1003.83
2014,02,16,09,24,1003.86
2014,02,16,09,25,1003.96
2014,02,16,09,26,1003.90
2014,02,16,09,27,1003.90
2014,02,16,09,28,1003.86
2014,02,16,09,29,1003.96
2014,02,16,09,30,1003.96
2014,02,16,09,31,1004.00
2014,02,16,09,32,1004.03
2014,02,16,09,33,1004.06
2014,02,16,09,34,1004.06
2014,02,16,09,35,1004.06
2014,02,16,09,36,1004.10
2014,02,16,09,37,1004.13
2014,02,16,09,38,1004.13
2014,02,16,09,39,1004.13
2014,02,16,09,40,1004.10
2014,02,16,09,41,1004.13
2014,02,16,09,42,1004.06
2014,02,16,09,43,1004.10
2014,02,16,09,44,1004.10
2014,02,16,09,45,1004.06
2014,02,16,09,46,1004.06
2014,02,16,09,47,1004.03
2014,02,16,09,48,1004.06
2014,02,16,09,49,1004.10
2014,02,16,09,50,1004.03
2014,02,16,09,51,1004.00
2014,02,16,09,52,1004.03
2014,02,16,09,53,1004.10
2014,02,16,09,54,1004.10
2014,02,16,09,55,1004.03
2014,02,16,09,56,1004.10
2014,02,16,09,57,1004.10
2014,02,16,09,58,1004.17
2014,02,16,09,59,1004.13
2014,02,16,10,00,1004.10
2014,02,16,10,01,1004.17
2014,02,16,10,02,1004.17
2014,02,16,10,03,1004.23
2014,02,16,10,04,1004.20
2014,02,16,10,05,1004.23
2014,02,16,10,06,1004.27
2014,02,16,10,07,1004.27
2014,02,16,10,08,1004.30
2014,02,16,10,09,1004.30
2014,02,16,10,10,1004.30
2014,02,16,10,11,1004.23
2014,02,16,10,12,1004.30
2014,02,16,10,13,1004.30
2014,02,16,10,14,1004.27
2014,02,16,10,15,1004.27
2014,02,16,10,16,1004.27
2014,02,16,10,17,1004.23
2014,02,16,10,18,1004.27
2014,02,16,10,19,1004.23
2014,02,16,10,20,1004.23
2014,02,16,10,21,1004.20
2014,02,16,10,22,1004.23
2014,02,16,10,23,1004.23
2014,02,16,10,24,1004.23
2014,02,16,10,25,1004.23
2014,02,16,10,26,1004.27
2014,02,16,10,27,1004.30
2014,02,16,10,28,1004.27
2014,02,16,10,29,1004.27
2014,02,16,10,30,1004.30
2014,02,16,10,31,1004.34
2014,02,16,10,32,1004.40
2014,02,16,10,33,1004.37
2014,02,16,10,34,1004.34
2014,02,16,10,35,1004.27
2014,02,16,10,36,1004.34
2014,02,16,10,37,1004.30
2014,02,16,10,38,1004.34
2014,02,16,10,39,1004.37
2014,02,16,10,40,1004.37
2014,02,16,10,41,1004.40
2014,02,16,10,42,1004.44
2014,02,16,10,43,1004.47
2014,02,16,10,44,1004.54
2014,02,16,10,45,1004.50
2014,02,16,10,46,1004.50
2014,02,16,10,47,1004.40
2014,02,16,10,48,1004.40
2014,02,16,10,49,1004.37
2014,02,16,10,50,1004.40
2014,02,16,10,51,1004.34
2014,02,16,10,52,1004.34
2014,02,16,10,53,1004.27
2014,02,16,10,54,1004.23
2014,02,16,10,55,1004.27
2014,02,16,10,56,1004.20
2014,02,16,10,57,1004.20
2014,02,16,10,58,1004.13
2014,02,16,10,59,1004.13
2014,02,16,11,00,1004.17
2014,02,16,11,01,1004.17
2014,02,16,11,02,1004.10
2014,02,16,11,03,1004.13
2014,02,16,11,04,1004.20
2014,02,16,11,05,1004.20
2014,02,16,11,06,1004.17
2014,02,16,11,07,1004.10
2014,02,16,11,08,1004.17
2014,02,16,11,09,1004.20
2014,02,16,11,10,1004.17
2014,02,16,11,11,1004.17
2014,02,16,11,12,1004.17
2014,02,16,11,13,1004.13
2014,02,16,11,14,1004.17
2014,02,16,11,15,1004.13
2014,02,16,11,16,1004.17
2014,02,16,11,17,1004.27
2014,02,16,11,18,1004.27
2014,02,16,11,19,1004.20
2014,02,16,11,20,1004.20
2014,02,16,11,21,1004.20
2014,02,16,11,22,1004.20
2014,02,16,11,23,1004.06
2014,02,16,11,24,1004.06
2014,02,16,11,25,1004.10
2014,02,16,11,26,1004.10
2014,02,16,11,27,1004.06
2014,02,16,11,28,1004.10
2014,02,16,11,29,1004.17
2014,02,16,11,30,1004.10
2014,02,16,11,31,1004.13
2014,02,16,11,32,1004.10
2014,02,16,11,33,1004.10
2014,02,16,11,34,1004.10
2014,02,16,11,35,1004.00
2014,02,16,11,36,1004.00
2014,02,16,11,37,1004.03
2014,02,16,11,38,1004.03
2014,02,16,11,39,1004.10
2014,02,16,11,40,1004.10
2014,02,16,11,41,1004.13
2014,02,16,11,42,1004.17
2014,02,16,11,43,1004.23
2014,02,16,11,44,1004.20
2014,02,16,11,45,1004.30
2014,02,16,11,46,1004.30
2014,02,16,11,47,1004.27
2014,02,16,11,48,1004.30
2014,02,16,11,49,1004.23
2014,02,16,11,50,1004.27
2014,02,16,11,51,1004.27
2014,02,16,11,52,1004.27
2014,02,16,11,53,1004.20
2014,02,16,11,54,1004.17
2014,02,16,11,55,1004.13
2014,02,16,11,56,1004.13
2014,02,16,11,57,1004.13
2014,02,16,11,58,1004.17
2014,02,16,11,59,1004.17
2014,02,16,12,00,1004.20
2014,02,16,12,01,1004.23
2014,02,16,12,02,1004.23
2014,02,16,12,03,1004.30
2014,02,16,12,04,1004.34
2014,02,16,12,05,1004.34
2014,02,16,12,06,1004.34
2014,02,16,12,07,1004.27
2014,02,16,12,08,1004.27
2014,02,16,12,09,1004.20
2014,02,16,12,10,1004.23
2014,02,16,12,11,1004.20
2014,02,16,12,12,1004.17
2014,02,16,12,13,1004.17
2014,02,16,12,14,1004.17
2014,02,16,12,15,1004.17
2014,02,16,12,16,1004.13
2014,02,16,12,17,1004.13
2014,02,16,12,18,1004.10
2014,02,16,12,19,1004.03
2014,02,16,12,20,1003.96
2014,02,16,12,21,1003.96
2014,02,16,12,22,1003.90
2014,02,16,12,23,1003.86
2014,02,16,12,24,1003.83
2014,02,16,12,25,1003.83
2014,02,16,12,26,1003.79
2014,02,16,12,27,1003.76
2014,02,16,12,28,1003.79
2014,02,16,12,29,1003.76
2014,02,16,12,30,1003.73
2014,02,16,12,31,1003.73
2014,02,16,12,32,1003.79
2014,02,16,12,33,1003.73
2014,02,16,12,34,1003.69
2014,02,16,12,35,1003.62
2014,02,16,12,36,1003.59
2014,02,16,12,37,1003.46
2014,02,16,12,38,1003.46
2014,02,16,12,39,1003.42
2014,02,16,12,40,1003.39
2014,02,16,12,41,1003.42
2014,02,16,12,42,1003.39
2014,02,16,12,43,1003.42
2014,02,16,12,44,1003.49
2014,02,16,12,45,1003.52
2014,02,16,12,46,1003.52
2014,02,16,12,47,1003.62
2014,02,16,12,48,1003.62
2014,02,16,12,49,1003.56
2014,02,16,12,50,1003.52
2014,02,16,12,51,1003.52
2014,02,16,12,52,1003.49
2014,02,16,12,53,1003.52
2014,02,16,12,54,1003.56
2014,02,16,12,55,1003.56
2014,02,16,12,56,1003.52
2014,02,16,12,57,1003.49
2014,02,16,12,58,1003.46
2014,02,16,12,59,1003.42
2014,02,16,13,00,1003.39
2014,02,16,13,01,1003.39
2014,02,16,13,02,1003.35
2014,02,16,13,03,1003.29
2014,02,16,13,04,1003.25
2014,02,16,13,05,1003.25
2014,02,16,13,06,1003.22
2014,02,16,13,07,1003.18
2014,02,16,13,08,1003.18
2014,02,16,13,09,1003.15
2014,02,16,13,10,1003.15
2014,02,16,13,11,1003.08
2014,02,16,13,12,1002.98
2014,02,16,13,13,1002.91
2014,02,16,13,14,1002.88
2014,02,16,13,15,1002.81
2014,02,16,13,16,1002.81
2014,02,16,13,17,1002.85
2014,02,16,13,18,1002.78
2014,02,16,13,19,1002.78
2014,02,16,13,20,1002.81
2014,02,16,13,21,1002.85
2014,02,16,13,22,1002.81
2014,02,16,13,23,1002.74
2014,02,16,13,24,1002.71
2014,02,16,13,25,1002.64
2014,02,16,13,26,1002.64
2014,02,16,13,27,1002.61
2014,02,16,13,28,1002.64
2014,02,16,13,29,1002.61
2014,02,16,13,30,1002.61
2014,02,16,13,31,1002.61
2014,02,16,13,32,1002.57
2014,02,16,13,33,1002.54
2014,02,16,13,34,1002.54
2014,02,16,13,35,1002.51
2014,02,16,13,36,1002.54
2014,02,16,13,37,1002.54
2014,02,16,13,38,1002.51
2014,02,16,13,39,1002.38
2014,02,16,13,40,1002.34
2014,02,16,13,41,1002.27
2014,02,16,13,42,1002.24
2014,02,16,13,43,1002.13
2014,02,16,13,44,1002.03
2014,02,16,13,45,1002.03
2014,02,16,13,46,1002.00
2014,02,16,13,47,1001.93
2014,02,16,13,48,1001.86
2014,02,16,13,49,1001.83
2014,02,16,13,50,1001.86
2014,02,16,13,51,1001.90
2014,02,16,13,52,1001.86
2014,02,16,13,53,1001.83
2014,02,16,13,54,1001.83
2014,02,16,13,55,1001.80
2014,02,16,13,56,1001.76
2014,02,16,13,57,1001.73
2014,02,16,13,58,1001.76
2014,02,16,13,59,1001.73
2014,02,16,14,00,1001.73
2014,02,16,14,01,1001.73
2014,02,16,14,02,1001.66
2014,02,16,14,03,1001.66
2014,02,16,14,04,1001.63
2014,02,16,14,05,1001.56
2014,02,16,14,06,1001.56
2014,02,16,14,07,1001.59
2014,02,16,14,08,1001.56
2014,02,16,14,09,1001.49
2014,02,16,14,10,1001.39
2014,02,16,14,11,1001.36
2014,02,16,14,12,1001.36
2014,02,16,14,13,1001.32
2014,02,16,14,14,1001.22
2014,02,16,14,15,1001.15
2014,02,16,14,16,1001.08
2014,02,16,14,17,1000.98
2014,02,16,14,18,1000.81
2014,02,16,14,19,1000.68
2014,02,16,14,20,1000.54
2014,02,16,14,21,1000.48
2014,02,16,14,22,1000.34
2014,02,16,14,23,1000.31
2014,02,16,14,24,1000.20
2014,02,16,14,25,1000.14
2014,02,16,14,26,1000.03
2014,02,16,14,27,1000.00
2014,02,16,14,28,999.97
2014,02,16,14,29,999.83
2014,02,16,14,30,999.76
2014,02,16,14,31,999.76
2014,02,16,14,32,999.73
2014,02,16,14,33,999.70
2014,02,16,14,34,999.56
2014,02,16,14,35,999.49
2014,02,16,14,36,999.53
2014,02,16,14,37,999.49
2014,02,16,14,38,999.46
2014,02,16,14,39,999.46
2014,02,16,14,40,999.46
2014,02,16,14,41,999.43
2014,02,16,14,42,999.46
2014,02,16,14,43,999.43
2014,02,16,14,44,999.43
2014,02,16,14,45,999.43
2014,02,16,14,46,999.39
2014,02,16,14,47,999.39
2014,02,16,14,48,999.36
2014,02,16,14,49,999.36
2014,02,16,14,50,999.32
2014,02,16,14,51,999.32
2014,02,16,14,52,999.36
2014,02,16,14,53,999.36
2014,02,16,14,54,999.43
2014,02,16,14,55,999.30
2014,02,16,14,56,999.19
2014,02,16,14,57,999.19
2014,02,16,14,58,999.12
2014,02,16,14,59,999.09
2014,02,16,15,00,999.09
2014,02,16,15,01,999.09
2014,02,16,15,02,999.02
2014,02,16,15,03,998.99
2014,02,16,15,04,998.95
2014,02,16,15,05,998.92
2014,02,16,15,06,998.88
2014,02,16,15,07,998.85
2014,02,16,15,08,998.68
2014,02,16,15,09,998.82
2014,02,16,15,10,998.92
2014,02,16,15,11,998.75
2014,02,16,15,12,998.78
2014,02,16,15,13,998.71
2014,02,16,15,14,999.09
2014,02,16,15,15,998.71
2014,02,16,15,16,998.61
2014,02,16,15,17,998.58
2014,02,16,15,18,998.58
2014,02,16,15,19,998.54
2014,02,16,15,20,998.61
2014,02,16,15,21,998.41
2014,02,16,15,22,998.27
2014,02,16,15,23,998.27
2014,02,16,15,24,998.31
2014,02,16,15,25,998.24
2014,02,16,15,26,998.17
2014,02,16,15,27,998.10
2014,02,16,15,28,998.07
2014,02,16,15,29,998.04
2014,02,16,15,30,997.97
2014,02,16,15,31,997.90
2014,02,16,15,32,997.80
2014,02,16,15,33,997.94
2014,02,16,15,34,997.90
2014,02,16,15,35,997.97
2014,02,16,15,36,998.04
2014,02,16,15,37,997.90
2014,02,16,15,38,997.83
2014,02,16,15,39,997.80
2014,02,16,15,40,997.77
2014,02,16,15,41,997.73
2014,02,16,15,42,997.77
2014,02,16,15,43,997.73
2014,02,16,15,44,997.70
2014,02,16,15,45,997.66
2014,02,16,15,46,997.70
2014,02,16,15,47,997.60
2014,02,16,15,48,997.53
2014,02,16,15,49,997.63
2014,02,16,15,50,997.56
2014,02,16,15,51,997.56
2014,02,16,15,52,997.63
2014,02,16,15,53,997.60
2014,02,16,15,54,997.53
2014,02,16,15,55,997.37
2014,02,16,15,56,997.46
2014,02,16,15,57,997.36
2014,02,16,15,58,997.36
2014,02,16,15,59,997.39
2014,02,16,16,00,997.33
2014,02,16,16,01,997.22
2014,02,16,16,02,997.22
2014,02,16,16,03,997.12
2014,02,16,16,04,997.16
2014,02,16,16,05,997.09
2014,02,16,16,06,997.02
2014,02,16,16,07,997.02
2014,02,16,16,08,997.05
2014,02,16,16,09,996.99
2014,02,16,16,10,996.99
2014,02,16,16,11,996.92
2014,02,16,16,12,996.99
2014,02,16,16,13,997.02
2014,02,16,16,14,996.78
2014,02,16,16,15,996.92
2014,02,16,16,16,996.92
2014,02,16,16,17,996.78
2014,02,16,16,18,996.75
2014,02,16,16,19,996.75
2014,02,16,16,20,996.72
2014,02,16,16,21,996.75
2014,02,16,16,22,996.55
2014,02,16,16,23,996.58
2014,02,16,16,24,996.65
2014,02,16,16,25,996.72
2014,02,16,16,26,996.68
2014,02,16,16,27,996.58
2014,02,16,16,28,996.55
2014,02,16,16,29,996.55
2014,02,16,16,30,996.55
2014,02,16,16,31,996.55
2014,02,16,16,32,996.58
2014,02,16,16,33,996.48
2014,02,16,16,34,996.38
2014,02,16,16,35,996.48
2014,02,16,16,36,996.38
2014,02,16,16,37,996.41
2014,02,16,16,38,996.25
2014,02,16,16,39,996.17
2014,02,16,16,40,996.07
2014,02,16,16,41,996.07
2014,02,16,16,42,995.94
2014,02,16,16,43,995.94
2014,02,16,16,44,995.84
2014,02,16,16,45,995.87
2014,02,16,16,46,995.90
2014,02,16,16,47,995.90
2014,02,16,16,48,995.77
2014,02,16,16,49,995.77
2014,02,16,16,50,995.73
2014,02,16,16,51,995.77
2014,02,16,16,52,995.80
2014,02,16,16,53,995.87
2014,02,16,16,54,995.80
2014,02,16,16,55,995.77
2014,02,16,16,56,995.80
2014,02,16,16,57,995.84
2014,02,16,16,58,995.73
2014,02,16,16,59,995.80
2014,02,16,17,00,995.77
2014,02,16,17,01,995.64
2014,02,16,17,02,995.73
2014,02,16,17,03,995.77
2014,02,16,17,04,995.50
2014,02,16,17,05,995.63
2014,02,16,17,06,995.56
2014,02,16,17,07,995.43
2014,02,16,17,08,995.43
2014,02,16,17,09,995.53
2014,02,16,17,10,995.66
2014,02,16,17,11,995.63
2014,02,16,17,12,995.53
2014,02,16,17,13,995.40
2014,02,16,17,14,995.33
2014,02,16,17,15,995.36
2014,02,16,17,16,995.23
2014,02,16,17,17,995.26
2014,02,16,17,18,995.19
2014,02,16,17,19,995.29
2014,02,16,17,20,995.45